Tracking 28799 objects as of 18-Apr-2024
HD Live streaming from Space Station
objects crossing your sky now

DELTA 2 DEB

Track DELTA 2 DEB now!
10-day predictions


NORAD ID: 25138
Int'l Code: 1998-002E
Perigee: 762.0 km
Apogee: 1,247.5 km
Inclination: 26.9 °
Period: 105.1 minutes
Semi major axis: 7375 km
RCS: 3.4668 m2 (large)
Launch date: January 10, 1998
Source: United States (US)
Launch site: AIR FORCE EASTERN TEST RANGE (AFETR)

Note: This is SATELLITE DEBRIS
Your satellite tracking list
Your tracking list is empty




NASA's NSSDC Master Catalog

Two Line Element Set (TLE):
1 25138U 98002E   24108.54611602  .00000941  00000-0  63037-3 0  9994
2 25138  26.8771 220.5358 0329145  11.5108  92.5181 13.70549847313323
Source of the keplerian elements: AFSPC